Weather History for KHCD - August, 2013

Change the Weather History Date:

Wednesday, August 14, 2013

  Actual Average Record
Temperature  
Mean Temperature 61 °F -  
Max Temperature 75 °F 80 °F 93 °F (1965)
Min Temperature 47 °F 58 °F 38 °F (1964)
Degree Days  
Heating Degree Days 4    
Growing Degree Days 11 (Base 50)    
Moisture  
Dew Point 52 °F    
Average Humidity 74    
Maximum Humidity 99    
Minimum Humidity 41    
Precipitation  
Precipitation 0.00 in - - ()
Sea Level Pressure  
Sea Level Pressure 30.18 in    
Wind  
Wind Speed 1 mph (SW)    
Max Wind Speed 7 mph    
Max Gust Speed -    
Visibility 10 miles    
Events      
Averages and records for this station are not official NWS values.
T = Trace of Precipitation, MM = Missing Value Source: NWS Daily Summary

Daily Weather History Graph

Daily Weather History Graph

Search for Another Location

Airport or City:

Trip Planner

Search our weather history database for the weather conditions in past years. The results will help you decide how hot, cold, wet, or windy it might be!

Date:

Astronomy

Aug. 14, 2013 Rise Set
Actual Time 6:18 AM CDT 8:24 PM CDT
Civil Twilight 5:46 AM CDT 8:56 PM CDT
Nautical Twilight 5:07 AM CDT 9:35 PM CDT
Astronomical Twilight 4:23 AM CDT 10:19 PM CDT
Moon 2:41 PM CDT (8/14) No Moon Set
Length of Visible Light 15h 09m
Length of Day
14h 06m
First Quarter, 53% of the Moon is Illuminated
Aug 14
First Quarter
Aug 20
Full
Aug 28
Last Quarter
Sep 5
New
Sep 12
First Quarter

Hourly Weather History & Observations

Time (CDT) Temp. Dew Point Humidity Pressure Visibility Wind Dir Wind Speed Gust Speed Precip Events Conditions
12:14 AM 52.9 °F 51.8 °F 96% 30.20 in 10.0 mi Calm Calm - N/A   Scattered Clouds
12:33 AM 51.8 °F 51.1 °F 97% 30.20 in 10.0 mi Calm Calm - N/A   Clear
12:54 AM 52.3 °F 51.4 °F 97% 30.21 in 10.0 mi Calm Calm - N/A   Scattered Clouds
1:14 AM 51.8 °F 51.1 °F 97% 30.20 in 10.0 mi Calm Calm - N/A   Scattered Clouds
1:33 AM 50.9 °F 50.5 °F 99% 30.20 in 10.0 mi Calm Calm - N/A   Clear
1:54 AM 52.3 °F 52.0 °F 99% 30.19 in 10.0 mi Calm Calm - N/A   Scattered Clouds
2:14 AM 52.3 °F 51.4 °F 97% 30.19 in 10.0 mi Calm Calm - N/A   Mostly Cloudy
2:34 AM 51.8 °F 50.7 °F 96% 30.20 in 10.0 mi Calm Calm - N/A   Scattered Clouds
2:54 AM 52.2 °F 51.4 °F 97% 30.20 in 10.0 mi Calm Calm - N/A   Scattered Clouds
3:14 AM 51.1 °F 50.2 °F 97% 30.21 in 10.0 mi Calm Calm - N/A   Scattered Clouds
3:33 AM 51.6 °F 50.9 °F 97% 30.21 in 10.0 mi Calm Calm - N/A   Scattered Clouds
3:54 AM 51.8 °F 51.1 °F 97% 30.21 in 10.0 mi Calm Calm - N/A   Mostly Cloudy
4:13 AM 51.6 °F 50.9 °F 97% 30.21 in 10.0 mi Calm Calm - N/A   Scattered Clouds
4:34 AM 51.4 °F 50.2 °F 95% 30.21 in 10.0 mi Calm Calm - N/A   Clear
4:53 AM 49.6 °F 49.3 °F 99% 30.21 in 10.0 mi Calm Calm - N/A   Clear
5:14 AM 49.3 °F 49.1 °F 99% 30.20 in 10.0 mi Calm Calm - N/A   Clear
5:33 AM 48.4 °F 48.2 °F 99% 30.20 in 10.0 mi Calm Calm - N/A   Clear
5:54 AM 47.7 °F 47.3 °F 99% 30.21 in 10.0 mi Calm Calm - N/A   Clear
6:14 AM 48.0 °F 47.5 °F 98% 30.21 in 10.0 mi Calm Calm - N/A   Clear
6:34 AM 47.3 °F 46.9 °F 99% 30.21 in 10.0 mi Calm Calm - N/A   Clear
6:53 AM 47.8 °F 47.5 °F 99% 30.21 in 10.0 mi Calm Calm - N/A   Clear
7:14 AM 49.6 °F 49.3 °F 99% 30.21 in 10.0 mi Calm Calm - N/A   Clear
7:33 AM 52.3 °F 52.0 °F 99% 30.21 in 10.0 mi Calm Calm - N/A   Clear
7:53 AM 55.9 °F 55.4 °F 98% 30.21 in 10.0 mi Calm Calm - N/A   Clear
8:13 AM 59.4 °F 56.3 °F 90% 30.21 in 10.0 mi Calm Calm - N/A   Clear
8:34 AM 61.5 °F 56.3 °F 83% 30.21 in 10.0 mi Calm Calm - N/A   Clear
8:54 AM 62.8 °F 55.6 °F 77% 30.22 in 10.0 mi West 4.6 mph - N/A   Clear
9:14 AM 64.2 °F 55.4 °F 73% 30.22 in 10.0 mi West 4.6 mph - N/A   Clear
9:33 AM 65.8 °F 56.5 °F 72% 30.22 in 10.0 mi West 5.8 mph - N/A   Clear
9:54 AM 66.4 °F 55.6 °F 68% 30.22 in 10.0 mi West 4.6 mph - N/A   Clear
10:13 AM 68.0 °F 56.1 °F 66% 30.22 in 10.0 mi WSW 6.9 mph - N/A   Clear
10:34 AM 68.9 °F 56.8 °F 65% 30.22 in 10.0 mi West 5.8 mph - N/A   Clear
10:53 AM 69.8 °F 56.5 °F 63% 30.22 in 10.0 mi West 3.5 mph - N/A   Clear
11:14 AM 71.2 °F 55.8 °F 58% 30.22 in 10.0 mi West 5.8 mph - N/A   Clear
11:33 AM 71.8 °F 54.0 °F 53% 30.22 in 10.0 mi WSW 5.8 mph - N/A   Clear
11:54 AM 73.0 °F 52.5 °F 48% 30.22 in 10.0 mi WSW 6.9 mph - N/A   Clear
12:14 PM 72.7 °F 50.4 °F 45% 30.21 in 10.0 mi West 5.8 mph - N/A   Clear
12:34 PM 73.0 °F 50.5 °F 45% 30.21 in 10.0 mi SW 4.6 mph - N/A   Scattered Clouds
12:51 PM 73.0 °F 50.4 °F 45% 30.20 in 10.0 mi SSW 3.5 mph - N/A   Clear
1:14 PM 73.4 °F 50.2 °F 44% 30.19 in 10.0 mi Calm Calm - N/A   Scattered Clouds
1:33 PM 72.9 °F 49.6 °F 44% 30.19 in 10.0 mi WNW 3.5 mph - N/A   Scattered Clouds
1:53 PM 74.1 °F 51.4 °F 45% 30.18 in 10.0 mi South 3.5 mph - N/A   Scattered Clouds
2:54 PM 73.6 °F 50.7 °F 45% 30.17 in 10.0 mi WSW 4.6 mph - N/A   Scattered Clouds
3:13 PM 74.8 °F 51.6 °F 44% 30.16 in 10.0 mi WSW 5.8 mph - N/A   Scattered Clouds
3:34 PM 74.5 °F 50.9 °F 43% 30.16 in 10.0 mi South 3.5 mph - N/A   Clear
3:54 PM 74.3 °F 50.9 °F 44% 30.16 in 10.0 mi South 3.5 mph - N/A   Clear
4:14 PM 75.0 °F 51.4 °F 44% 30.16 in 10.0 mi SSE 3.5 mph - N/A   Scattered Clouds
4:33 PM 74.7 °F 50.4 °F 42% 30.16 in 10.0 mi SW 3.5 mph - N/A   Scattered Clouds
4:54 PM 75.6 °F 50.5 °F 41% 30.15 in 10.0 mi SW 5.8 mph - N/A   Scattered Clouds
5:13 PM 74.3 °F 50.4 °F 43% 30.15 in 10.0 mi South 5.8 mph - N/A   Scattered Clouds
5:33 PM 73.2 °F 52.7 °F 48% 30.15 in 10.0 mi Calm Calm - N/A   Scattered Clouds
5:53 PM 74.5 °F 49.6 °F 42% 30.14 in 10.0 mi SW 4.6 mph - N/A   Clear
6:13 PM 74.1 °F 50.5 °F 43% 30.14 in 10.0 mi South 4.6 mph - N/A   Clear
6:34 PM 73.0 °F 52.3 °F 48% 30.14 in 10.0 mi Calm Calm - N/A   Clear
6:54 PM 71.4 °F 55.0 °F 56% 30.14 in 10.0 mi Calm Calm - N/A   Clear
7:14 PM 71.2 °F 55.6 °F 58% 30.13 in 10.0 mi Calm Calm - N/A   Clear
7:34 PM 69.3 °F 57.0 °F 65% 30.13 in 10.0 mi Calm Calm - N/A   Clear
7:54 PM 67.3 °F 56.8 °F 69% 30.13 in 10.0 mi Calm Calm - N/A   Clear
8:14 PM 66.4 °F 57.2 °F 72% 30.13 in 10.0 mi Calm Calm - N/A   Clear
8:34 PM 64.2 °F 57.4 °F 78% 30.13 in 10.0 mi Calm Calm - N/A   Clear
8:53 PM 64.4 °F 55.2 °F 72% 30.13 in 10.0 mi Calm Calm - N/A   Clear
9:14 PM 63.3 °F 54.9 °F 74% 30.13 in 10.0 mi Calm Calm - N/A   Clear
9:34 PM 62.2 °F 54.7 °F 76% 30.14 in 10.0 mi SSE 3.5 mph - N/A   Clear
9:53 PM 60.1 °F 54.9 °F 83% 30.13 in 10.0 mi Calm Calm - N/A   Clear
10:13 PM 59.5 °F 54.5 °F 83% 30.14 in 10.0 mi Calm Calm - N/A   Clear
10:34 PM 59.7 °F 54.0 °F 81% 30.14 in 10.0 mi Calm Calm - N/A   Clear
10:53 PM 59.2 °F 53.8 °F 82% 30.14 in 10.0 mi Calm Calm - N/A   Clear
11:14 PM 58.8 °F 53.8 °F 83% 30.13 in 10.0 mi Calm Calm - N/A   Clear
11:33 PM 59.2 °F 54.0 °F 83% 30.14 in 10.0 mi South 3.5 mph - N/A   Clear
11:54 PM 59.4 °F 54.0 °F 82% 30.14 in 10.0 mi Calm Calm - N/A   Clear